Tracking 29892 objects as of 21-Nov-2024
HD Live streaming from Space Station
objects crossing your sky now

STARLINK-2174

Track STARLINK-2174 now!
10-day predictions
STARLINK-2174 is classified as:


NORAD ID: 47756
Int'l Code: 2021-017AL
Perigee: 433.5 km
Apogee: 434.9 km
Inclination: 53.0 °
Period: 93.1 minutes
Semi major axis: 6805 km
RCS: Unknown
Launch date: March 4, 2021
Source: United States (US)
Launch site: AIR FORCE EASTERN TEST RANGE (AFETR)
Your satellite tracking list
Your tracking list is empty




NASA's NSSDC Master Catalog

Two Line Element Set (TLE):
1 47756U 21017AL  24325.91668981  .00532185  00000-0  98678-2 0  9998
2 47756  53.0487 172.5771 0001027  97.8957 252.8864 15.46456324  5834
Source of the keplerian elements: AFSPC